Location: STAR School
(35.3054°N, 111.2976°W)
Time: 12:15:53
(UTC-07:00)

deb Explorer IX - Pass Details

Date: 01 June 2019
Orbit: 537 x 1115 km, 38.8° (Epoch: 14 June)

Event Time Altitude Azimuth Distance (km) Brightness Sun altitude
Rises 20:40:33 0° 215° (SW) 3,461 ? -12.0°
Reaches altitude 10° 20:43:38 10° 203° (SSW) 2,414 ? -12.5°
Maximum altitude 20:48:15 26° 148° (SSE) 1,428 ? -13.3°
Enters shadow 20:50:41 18° 108° (ESE) 1,674 ? -13.6°
